Showing default

DEKART, 46493

Orbit data source: Space-Track

DEKART, 46493 is a payload satellite owned by MGU (CIS) in SSO that was launched on Mon, 28 Sep 2020 UTC via a SOYUZ-2-1B launch vehicle from the Plesetsk Missile And Space Complex (PKMTR). Payload-class satellites include a variety of spacecraft equipped with specific instruments for various scientific and technological missions. These include communications satellites like Starlink; space stations such as the ISS; scientific satellites like the Hubble; Earth observation satellites from companies like Planet Labs, Umbra, and HawkEye 360; GPS; miniature CubeSats for education and research; and military/defense satellites.

Loading next visibility...
Identifier
46493, 2020-068H
Orbit
SSO
Last TLE update
13 hours ago
Origin
Manufacturer
MGU
Mission
Operational Amateur Science
Bus & Motor
CUBESAT 3U, Unknown motor
Mass
4 kg wet, 4 kg dry
Launch date (UTC)
2020-09-28 (5 years ago)
Launch vehicle
SOYUZ-2-1B
Launch site
Plesetsk Missile And Space Complex (PKMTR)
Object type
Payload
Rocket body
Debris
Shape & HBR
Box, Unknown HBR
Radar Cross Section
0.035 m², Medium (>0.1 m² and < 1m²)

Expand to show TLE details & history

TLE from 13 hours ago
0 DEKART
1 46493U 20068H   25109.47167677  .00016018  00000-0  62548-3 0  9998
2 46493  97.8560  87.8515 0010994 348.8183  11.2808 15.25934326250923
Epoch: 2025-04-19T11:19Z
Definitive object data (Epoch: 2025-04-19T11:19:12.872Z)
Latitude
-0.00005°
Longitude
70.23348°
Altitude
483.662 km
Speed
7.628 km/s
True Right ascension
05h 51m 24s
True Declination
0° 00' 00"
Sunlit
Object was in daylight at TLE epoch
Visualization TLE readout
Latitude
82.06218°
Longitude
-29.42566°
Altitude
503.321 km
Speed
7.619 km/s
Apparent Right ascension
19h 46m 32s
Apparent Declination
26° 36' 57"
Sunlit
Object is in daylight
Visualization observer readout
Local Sidereal Time
07:11:28
Azimuth
351.49° N
Elevation
-22.969°
Doppler factor
1
Orbital elements
Apogee altitude
492.504 km
Perigee altitude
477.414 km
Semi-major axis
6,863.096 km
Eccentricity
0.0010994
Inclination
97.856°
RAAN
87.8515°
Arg. of periapsis
348.8183°
True anomaly
11.30548°
Mean anomaly
11.2808°
Eccentric anomaly
11.29314°
Mean motion
3.81736 °/min
BSTAR
0.00062548
Orbital period
94.31 mins
Loading maneuver chart data...
Loading SW <> Apogee altitude chart data...
Loading historical data...
Loading historical data...
Loading historical data...
Loading historical data...
Loading historical data...
Loading historical data...
Loading historical data...

DEKART Visibility forecast

Observer location: undefined°, undefined°

Span
Click to sort rows by Start time (UTC) header in descending order
Start Az.
Max El. time (UTC)
Max El. Az.
Max El.
End time (UTC)
End Az.
6 mins2025-04-20 11:29:33.379Z8.243° NNE2025-04-20 11:32:33.379Z224.255° SW42.486°2025-04-20 11:35:33.379Z198.24° SSW
5 mins2025-04-20 22:05:33.379Z128.501° SE2025-04-20 22:07:33.379Z70.117° E31.064°2025-04-20 22:10:33.379Z6.005° NNE
|